QPF
0.00 0.00 0.00 0.00 0.00 0.00 0.00 0.00 0.00 0.00 0.00 0.00 0.00 0.00 0.00 0.00 0.00 0.00 0.00 0.00 0.00 0.00 0.00 0.00 0.00 0.00 0.00 0.00 0.00 0.00 0.00 0.00 0.00
0.00 0.00 0.00 0.00 0.00 0.00 0.00 0.00 0.00 0.00 0.00 0.00 0.00 0.00 0.00 0.00 0.00 0.00 0.00 0.00 0.00 0.00 0.00 0.00 0.00 0.00 0.00 0.00 0.00 0.00 0.00 0.00 0.00
0.00 0.00 0.00 0.00 0.00 0.00 0.00 0.00 0.00 0.00 0.00 0.00 0.00 0.00 0.00 0.00 0.00 0.00 0.00 0.00 0.00 0.00 0.00 0.00 0.00 0.00 0.00 0.00 0.00 0.00 0.00 0.00 0.00
0.00 0.00 0.00 0.00 0.00 0.00 0.00 0.00 0.00 0.00 0.00 0.00 0.00 0.00 0.00 0.00 0.00 0.00 0.00 0.00 0.00 0.00 0.00 0.00 0.00 0.00 0.00 0.00 0.00 0.00 0.00 0.00 0.00
0.00 0.00 0.00 0.00 0.00 0.00 0.00 0.00 0.00 0.00 0.00 0.00 0.00 0.00 0.00 0.00 0.00 0.00 0.00 0.00 0.00 0.00 0.00 0.00 0.00 0.00 0.00 0.00 0.00 0.00 0.00 0.00 0.00
0.00 0.00 0.00 0.00 0.00 0.00 0.00 0.00 0.00 0.00 0.00 0.00 0.00 0.00 0.00 0.00 0.00 0.00 0.00 0.00 0.00 0.00 0.00 0.00 0.00 0.00 0.00 0.00 0.00 0.00 0.00 0.00 0.00
0.00 0.00 0.00 0.00 0.00 0.00 0.00 0.00 0.00 0.00 0.00 0.00 0.00 0.00 0.00 0.00 0.00 0.00 0.00 0.00 0.00 0.00 0.00 0.00 0.00 0.00 0.00 0.00 0.00 0.00 0.00 0.00 0.00
0.00 0.00 0.00 0.00 0.00 0.00 0.00 0.00 0.00 0.00 0.00 0.00 0.00 0.00 0.00 0.00 0.00 0.00 0.00 0.00 0.00 0.00 0.00 0.00 0.00 0.00 0.00 0.00 0.00 0.00 0.00 0.00 0.00
0.00 0.00 0.00 0.00 0.00 0.00 0.00 0.00 0.00 0.00 0.00 0.00 0.00 0.00 0.00 0.00 0.00 0.00 0.00 0.00 0.00 0.00 0.00 0.00 0.00 0.00 0.00 0.00 0.00 0.00 0.00 0.00 0.00
0.00 0.00 0.00 0.00 0.00 0.00 0.01 0.00 0.00 0.00 0.00 0.00 0.00 0.00 0.00 0.00 0.00 0.00 0.00 0.00 0.00 0.00 0.00 0.00 0.00 0.00 0.00 0.00 0.00 0.00 0.00 0.00 0.00
0.00 0.00 0.00 0.00 0.00 0.00 0.00 0.01 0.00 0.00 0.00 0.00 0.00 0.00 0.00 0.00 0.00 0.00 0.00 0.00 0.00 0.00 0.00 0.00 0.00 0.00 0.00 0.00 0.00 0.00 0.00 0.00 0.00
0.00 0.00 0.00 0.00 0.00 0.00 0.00 0.00 0.00 0.00 0.00 0.00 0.00 0.00 0.00 0.00 0.00 0.00 0.00 0.00 0.00 0.00 0.00 0.00 0.00 0.00 0.00 0.00 0.00 0.00 0.00 0.00 0.00
0.00 0.00 0.00 0.00 0.00 0.00 0.00 0.00 0.00 0.00 0.00 0.00 0.00 0.00 0.00 0.00 0.00 0.00 0.00 0.00 0.00 0.00 0.00 0.00 0.00 0.00 0.00 0.00 0.00 0.00 0.00 0.00 0.00
0.00 0.00 0.00 0.00 0.00 0.00 0.00 0.00 0.00 0.00 0.00 0.00 0.00 0.00 0.00 0.00 0.00 0.00 0.00 0.00 0.00 0.00 0.00 0.00 0.00 0.00 0.00 0.00 0.00 0.00 0.00 0.00 0.00
0.00 0.00 0.00 0.00 0.00 0.00 0.00 0.00 0.00 0.00 0.00 0.00 0.00 0.00 0.00 0.00 0.00 0.00 0.00 0.00 0.00 0.00 0.00 0.00 0.00 0.00 0.00 0.00 0.00 0.00 0.00 0.00 0.00
0.00 0.00 0.00 0.00 0.00 0.00 0.00 0.00 0.00 0.00 0.00 0.00 0.00 0.00 0.00 0.00 0.00 0.00 0.00 0.00 0.00 0.00 0.00 0.00 0.00 0.00 0.00 0.00 0.00 0.00 0.00 0.00 0.00
0.00 0.00 0.00 0.00 0.00 0.00 0.00 0.00 0.00 0.00 0.00 0.00 0.00 0.00 0.00 0.00 0.00 0.00 0.00 0.00 0.00 0.00 0.00 0.00 0.00 0.01 0.00 0.00 0.00 0.00 0.00 0.00 0.00
0.00 0.00 0.00 0.00 0.00 0.00 0.00 0.00 0.00 0.00 0.00 0.00 0.00 0.00 0.00 0.00 0.00 0.00 0.00 0.00 0.00 0.00 0.00 0.00 0.00 0.00 0.00 0.00 0.00 0.00 0.00 0.00 0.00
0.00 0.00 0.00 0.00 0.00 0.00 0.00 0.00 0.00 0.00 0.00 0.00 0.00 0.00 0.00 0.00 0.00 0.00 0.00 0.00 0.00 0.00 0.00 0.00 0.00 0.00 0.01 0.00 0.00 0.00 0.00 0.00 0.00
0.00 0.00 0.00 0.00 0.00 0.00 0.00 0.00 0.00 0.00 0.00 0.00 0.00 0.00 0.00 0.00 0.00 0.00 0.00 0.00 0.00 0.00 0.00 0.00 0.00 0.00 0.00 0.00 0.00 0.00 0.00 0.00 0.00
MSLP
995.28 996.68 997.80 999.01 1000.40 1001.80 1002.82 1004.02 1005.27 1006.64 1007.84 1008.68 1009.36 1010.07 1010.84 1011.53 1012.37 1012.77 1013.14 1013.59 1013.87 1014.15 1014.46 1014.75 1015.14 1015.50 1015.71 1016.16 1016.45 1016.88 1017.20 1017.76 1018.09
994.27 995.69 996.55 997.82 999.33 1000.46 1001.77 1002.94 1004.08 1005.22 1006.79 1007.85 1008.70 1009.38 1010.19 1010.91 1011.52 1012.02 1012.19 1012.59 1013.16 1013.46 1013.71 1014.09 1014.43 1014.86 1015.30 1015.67 1015.94 1016.36 1016.95 1017.31 1017.67
993.06 993.63 995.13 996.69 998.21 999.45 1000.69 1001.80 1002.88 1004.27 1005.63 1006.86 1007.80 1008.73 1009.41 1009.95 1010.25 1010.86 1011.52 1012.10 1012.56 1012.90 1013.01 1013.34 1013.75 1014.18 1014.64 1015.05 1015.46 1015.97 1016.45 1016.81 1017.10
992.42 993.04 994.20 995.57 997.18 998.40 999.57 1000.70 1002.05 1003.23 1004.59 1006.02 1007.22 1007.91 1008.32 1009.03 1009.82 1010.44 1011.05 1011.45 1011.90 1012.29 1012.47 1012.66 1013.07 1013.45 1013.99 1014.35 1014.94 1015.47 1015.97 1016.35 1016.72
991.49 992.23 993.31 994.60 996.16 997.48 998.96 1000.09 1001.23 1002.28 1003.47 1004.71 1005.66 1006.65 1007.71 1008.53 1009.20 1009.88 1010.43 1010.79 1011.10 1011.49 1011.85 1012.02 1012.35 1012.84 1013.32 1013.94 1014.48 1015.08 1015.67 1016.04 1016.25
990.97 991.84 992.88 994.05 995.54 996.75 998.12 999.25 1000.16 1001.33 1002.37 1003.62 1004.87 1005.91 1006.84 1007.67 1008.31 1008.99 1009.58 1009.95 1010.31 1010.69 1010.97 1011.28 1011.71 1012.33 1012.81 1013.34 1013.87 1014.33 1014.68 1014.97 1015.24
991.17 991.62 992.74 993.74 994.91 996.01 997.10 998.19 999.26 1000.34 1001.56 1002.74 1003.99 1005.05 1005.84 1006.52 1007.20 1007.92 1008.44 1008.99 1009.46 1009.84 1010.20 1010.54 1011.01 1011.55 1012.15 1012.40 1012.74 1013.30 1013.79 1014.14 1014.53
991.56 991.94 992.61 993.48 994.29 995.34 996.33 997.49 998.57 999.46 1000.47 1001.54 1002.64 1003.82 1004.55 1005.16 1006.02 1006.71 1007.36 1007.90 1008.42 1008.99 1009.40 1009.87 1010.36 1010.73 1011.04 1011.47 1011.83 1012.15 1012.69 1013.11 1013.47
992.71 993.06 993.16 993.63 994.20 994.98 995.71 996.45 997.40 998.23 999.40 1000.28 1001.28 1002.13 1002.88 1003.96 1004.88 1005.58 1006.19 1006.79 1007.42 1008.01 1008.47 1008.96 1009.46 1009.81 1010.02 1010.42 1010.67 1010.97 1011.42 1011.93 1012.40
993.52 993.61 994.06 994.55 994.73 995.39 996.02 996.40 997.05 997.62 998.37 999.38 1000.30 1000.96 1001.82 1002.71 1003.66 1004.48 1005.07 1005.71 1006.38 1006.92 1007.29 1007.95 1008.34 1008.72 1009.10 1009.23 1009.58 1010.06 1010.50 1010.94 1011.26
994.15 994.41 994.83 994.83 995.30 995.76 996.06 996.38 996.50 996.88 997.95 998.76 999.43 1000.13 1000.93 1001.83 1002.65 1003.37 1004.12 1004.71 1005.18 1005.72 1006.26 1006.72 1007.15 1007.63 1007.87 1008.14 1008.28 1008.86 1009.40 1010.00 1010.47
995.46 995.42 995.43 995.56 995.65 996.06 996.17 996.08 996.08 996.62 997.46 997.98 998.78 999.37 1000.08 1000.66 1001.46 1002.32 1003.09 1003.57 1004.15 1004.73 1005.32 1005.77 1006.07 1006.50 1006.87 1007.03 1007.15 1007.73 1008.38 1009.35 1009.72
995.99 996.04 995.99 995.98 995.81 996.16 996.30 996.46 996.18 996.35 996.63 997.23 997.89 998.45 998.85 999.75 1000.48 1001.21 1001.78 1002.38 1003.05 1003.62 1004.15 1004.64 1005.26 1005.39 1005.55 1005.88 1006.04 1006.75 1007.67 1008.57 1008.84
997.09 996.78 996.40 996.27 996.25 996.48 996.60 996.54 996.45 996.56 996.70 996.84 996.86 997.61 998.47 999.14 999.67 1000.13 1000.61 1001.42 1002.12 1002.75 1003.38 1003.99 1004.32 1004.55 1004.72 1004.89 1005.21 1005.99 1006.73 1007.42 1007.77
998.82 998.49 997.92 997.16 996.91 996.82 996.65 996.48 996.62 996.90 996.92 996.82 997.04 997.54 997.99 998.44 998.91 999.54 1000.29 1000.89 1001.51 1002.08 1002.68 1003.18 1003.55 1003.90 1004.08 1004.22 1004.54 1005.03 1005.68 1006.29 1006.63
999.71 999.31 998.82 998.39 997.98 997.73 997.20 996.87 996.57 996.97 997.36 997.20 997.23 997.40 997.76 998.16 998.58 999.08 999.61 1000.32 1001.03 1001.60 1001.98 1002.39 1002.87 1003.34 1003.59 1003.71 1003.95 1004.22 1004.61 1005.04 1005.46
1000.20 999.80 999.30 999.05 998.71 998.53 998.44 998.08 997.78 997.68 997.40 997.24 997.42 997.76 997.72 997.85 998.26 998.74 999.24 999.88 1000.47 1001.04 1001.47 1001.87 1002.46 1002.93 1003.13 1003.39 1003.72 1003.76 1003.62 1003.88 1004.48
1000.85 1000.11 999.57 999.55 999.53 999.23 998.97 998.77 998.59 998.27 997.96 997.70 997.65 997.53 997.48 997.69 997.95 998.35 998.97 999.57 1000.26 1000.97 1000.98 1001.17 1001.93 1002.38 1002.71 1003.24 1003.55 1003.86 1003.96 1004.10 1004.09
1000.91 1000.32 999.99 999.99 1000.05 999.91 999.22 999.02 999.03 998.82 998.55 998.30 998.06 997.85 997.68 997.63 997.81 998.23 998.73 999.49 1000.56 1001.71 1001.59 1001.67 1001.92 1002.30 1002.15 1003.45 1003.76 1004.07 1004.12 1004.20 1004.09
1000.96 1000.57 1000.56 1000.73 1000.72 1000.50 999.65 999.18 999.06 998.95 998.75 998.61 998.43 998.33 997.79 997.57 997.76 998.13 998.43 998.92 1000.04 1001.65 1003.15 1003.08 1002.96 1002.97 1003.23 1003.57 1004.08 1004.19 1004.26 1004.11 1003.94
Thickness
5878 5868 5868 5868 5859 5852 5852 5849 5843 5836 5832 5829 5829 5828 5826 5826 5822 5821 5821 5820 5819 5818 5817 5817 5816 5812 5810 5807 5805 5801 5798 5796 5793
5875 5871 5872 5871 5867 5863 5857 5855 5851 5846 5837 5834 5832 5831 5829 5828 5828 5826 5827 5827 5824 5823 5823 5821 5820 5818 5813 5810 5808 5805 5802 5800 5796
5879 5885 5881 5877 5874 5869 5863 5861 5858 5853 5845 5839 5837 5834 5834 5834 5835 5835 5832 5829 5826 5825 5826 5825 5822 5819 5817 5814 5812 5809 5805 5802 5800
5881 5888 5885 5881 5878 5876 5871 5867 5862 5857 5851 5843 5839 5840 5840 5838 5835 5834 5832 5831 5828 5826 5826 5826 5823 5821 5819 5818 5814 5810 5806 5802 5799
5888 5893 5890 5886 5882 5879 5872 5867 5865 5862 5858 5853 5850 5846 5841 5839 5838 5835 5833 5832 5831 5830 5826 5827 5826 5822 5820 5816 5813 5810 5804 5799 5799
5894 5890 5888 5886 5882 5879 5874 5870 5870 5867 5865 5858 5853 5850 5846 5843 5841 5839 5836 5836 5836 5833 5832 5830 5828 5824 5820 5817 5814 5810 5808 5806 5803
5885 5889 5886 5883 5881 5881 5880 5877 5873 5870 5866 5864 5857 5853 5850 5848 5846 5844 5843 5842 5840 5838 5836 5834 5831 5828 5824 5823 5820 5817 5814 5811 5807
5880 5883 5884 5881 5882 5881 5882 5879 5875 5874 5870 5868 5866 5859 5857 5855 5854 5852 5850 5848 5846 5843 5840 5837 5834 5832 5831 5829 5827 5826 5821 5818 5814
5861 5865 5872 5876 5875 5880 5880 5882 5880 5880 5875 5873 5873 5869 5866 5863 5860 5858 5856 5854 5851 5848 5845 5843 5839 5837 5837 5834 5834 5833 5829 5826 5821
5855 5858 5862 5863 5866 5867 5870 5877 5882 5879 5881 5879 5874 5873 5873 5871 5867 5862 5862 5859 5856 5853 5850 5848 5845 5843 5842 5842 5842 5838 5834 5831 5830
5845 5849 5853 5859 5861 5865 5868 5873 5882 5885 5879 5878 5878 5877 5876 5875 5872 5869 5866 5864 5862 5860 5857 5854 5852 5850 5850 5849 5850 5845 5840 5836 5834
5831 5836 5845 5852 5859 5861 5864 5873 5880 5882 5878 5880 5879 5879 5879 5880 5879 5874 5870 5868 5866 5864 5860 5857 5857 5856 5854 5854 5855 5850 5845 5835 5833
5829 5835 5842 5849 5857 5859 5863 5866 5874 5875 5880 5881 5879 5883 5886 5884 5881 5878 5876 5875 5871 5869 5866 5863 5860 5859 5861 5860 5860 5854 5844 5836 5834
5817 5827 5835 5842 5848 5850 5855 5861 5867 5864 5868 5873 5885 5885 5880 5879 5880 5881 5881 5876 5874 5870 5866 5862 5861 5860 5861 5862 5862 5856 5845 5838 5836
5797 5805 5817 5831 5835 5840 5849 5854 5857 5855 5860 5873 5877 5876 5875 5877 5878 5878 5873 5870 5869 5867 5863 5859 5857 5856 5856 5860 5859 5854 5846 5840 5837
5783 5793 5804 5817 5824 5829 5839 5845 5851 5848 5852 5862 5866 5867 5869 5870 5872 5872 5870 5865 5860 5858 5859 5856 5853 5850 5849 5852 5853 5853 5847 5842 5838
5770 5786 5795 5806 5812 5816 5821 5829 5837 5843 5850 5856 5857 5856 5860 5864 5864 5863 5863 5861 5859 5855 5852 5849 5846 5843 5843 5845 5844 5846 5848 5845 5839
5757 5779 5788 5793 5795 5801 5808 5818 5825 5831 5836 5844 5846 5850 5855 5857 5859 5859 5857 5856 5852 5850 5851 5848 5842 5842 5841 5836 5836 5837 5834 5833 5834
5755 5764 5772 5778 5782 5789 5799 5807 5812 5817 5824 5829 5834 5838 5845 5849 5850 5850 5849 5846 5839 5830 5833 5834 5832 5830 5836 5826 5823 5819 5818 5817 5817
5738 5752 5757 5762 5767 5776 5789 5797 5801 5807 5814 5819 5823 5825 5834 5839 5840 5840 5841 5841 5839 5824 5813 5810 5812 5814 5813 5810 5807 5806 5805 5807 5806